EET,Max TemperatureF,Mean TemperatureF,Min TemperatureF,Max Dew PointF,MeanDew PointF,Min DewpointF,Max Humidity, Mean Humidity, Min Humidity, Max Sea Level PressureIn, Mean Sea Level PressureIn, Min Sea Level PressureIn, Max VisibilityMiles, Mean VisibilityMiles, Min VisibilityMiles, Max Wind SpeedMPH, Mean Wind SpeedMPH, Max Gust SpeedMPH,PrecipitationIn, CloudCover, Events, WindDirDegrees
2013-10-1,86,77,68,66,60,55,83,57,30,29.89,29.83,29.77,6,4,4,10,4,,0.00,1,,16
2013-10-2,94,83,72,65,55,36,69,43,10,29.86,29.78,29.74,6,4,2,20,11,,0.00,,,202
2013-10-3,87,79,71,68,62,57,78,58,29,30.01,29.92,29.86,6,5,4,20,7,,0.00,5,,354
2013-10-4,81,74,66,63,54,46,78,52,21,30.06,30.03,29.99,6,4,1,20,10,,0.00,1,,346
2013-10-5,76,70,64,54,50,48,68,51,26,30.06,30.03,29.98,6,6,6,16,11,,0.00,2,,334
2013-10-6,77,69,61,50,47,41,59,46,24,30.09,30.04,30.01,6,6,4,18,10,,0.00,2,,352
2013-10-7,78,70,62,50,47,45,59,45,21,30.15,30.10,30.06,6,6,6,22,12,,0.00,,,16
2013-10-8,81,71,61,55,50,43,68,50,23,30.12,30.07,30.01,6,6,4,23,15,,0.00,1,,25
2013-10-9,86,74,61,61,52,36,77,51,10,30.06,30.02,29.95,6,5,4,18,9,,0.00,,,25
2013-10-10,85,74,63,61,57,50,82,57,23,30.09,30.04,30.00,6,3,2,17,8,,0.00,,,24
2013-10-11,85,74,62,61,55,48,78,55,23,30.12,30.09,30.04,6,2,1,15,9,,0.00,,,19
2013-10-12,85,76,66,66,60,52,83,61,27,30.09,30.04,29.98,6,2,1,15,7,,0.00,2,,1
2013-10-13,85,76,68,68,64,61,88,70,34,30.01,29.93,29.86,6,4,2,16,7,,0.00,2,,295
2013-10-14,84,76,69,66,63,55,88,65,32,30.01,29.95,29.89,4,4,2,12,8,,0.00,2,,311
2013-10-15,84,76,68,66,59,45,94,60,21,30.04,30.01,29.97,6,2,1,12,4,,0.00,3,,9
2013-10-16,81,72,63,63,56,50,83,56,26,30.04,29.98,29.92,6,4,2,12,7,,0.00,4,,21
2013-10-17,87,75,63,55,48,41,59,38,16,29.95,29.86,29.80,6,6,6,17,7,,0.00,,,170
2013-10-18,83,73,63,64,55,45,78,49,19,30.04,29.92,29.83,6,6,6,23,9,,0.00,1,,276
2013-10-19,79,72,65,61,54,48,73,54,33,30.18,30.10,30.04,6,5,1,16,6,,0.00,3,,356
2013-10-20,79,70,61,54,51,46,72,52,30,30.17,30.12,30.06,6,4,4,21,11,,0.00,,,26
2013-10-21,83,72,62,57,54,52,77,56,24,30.09,30.03,29.97,6,6,4,20,13,,0.00,,,28
2013-10-22,82,72,62,61,58,54,83,63,31,30.04,30.00,29.95,6,4,4,16,8,,0.00,,,30
2013-10-23,81,72,62,61,58,54,88,63,30,30.04,30.01,29.95,6,4,2,20,7,,0.00,2,,19
2013-10-24,79,70,60,61,57,54,88,65,32,30.04,30.00,29.95,6,4,2,14,8,,0.00,,,31
2013-10-25,80,70,60,64,56,48,94,65,27,30.04,29.99,29.95,6,3,1,17,9,,0.00,3,,32
2013-10-26,78,69,60,55,51,46,73,53,23,30.04,30.01,29.97,6,6,6,17,8,,0.00,1,,29
2013-10-27,78,70,61,59,55,46,88,62,26,30.06,30.02,29.98,6,3,1,15,6,,0.00,2,,352
2013-10-28,77,69,61,61,55,48,88,65,36,30.07,30.02,29.95,4,2,1,15,4,,0.00,,,12
2013-10-29,76,68,59,61,57,52,88,67,39,30.01,29.95,29.89,6,2,0,13,4,,0.00,3,Fog,330
2013-10-30,78,71,64,64,61,59,83,74,51,29.98,29.93,29.86,6,5,2,13,7,,0.00,3,,308
2013-10-31,80,73,66,66,62,57,88,75,47,30.04,29.97,29.92,4,2,1,13,6,,0.00,,,321